Time,TemperatureF,DewpointF,PressureIn,WindDirection,WindDirectionDegrees,WindSpeedMPH,WindSpeedGustMPH,Humidity,HourlyPrecipIn,Conditions,Clouds,dailyrainin,SoftwareType,DateUTC
2013-06-22 05:11:00,49.0,43.0,29.85,SSW,210,0.0,0.0,81,0.00,,,0.06,,2013-06-22 13:11:00,
2013-06-22 05:21:00,48.0,41.0,29.85,SSW,210,0.0,0.0,78,0.00,,,0.06,,2013-06-22 13:21:00,
2013-06-22 07:02:00,49.0,44.0,29.85,SSW,210,0.0,0.0,84,0.00,,,0.06,,2013-06-22 15:02:00,
2013-06-22 07:22:00,50.0,45.0,29.85,SSW,210,0.0,0.0,84,0.00,,,0.06,,2013-06-22 15:22:00,
2013-06-22 07:34:00,50.0,45.0,29.85,SSW,210,0.0,0.0,84,0.00,,,0.06,,2013-06-22 15:34:00,
2013-06-22 07:43:00,52.0,47.0,29.85,SSW,210,0.0,0.0,82,0.00,,,0.05,,2013-06-22 15:43:00,
2013-06-22 07:53:00,52.0,47.0,29.85,SSW,210,0.0,0.0,82,0.00,,,0.05,,2013-06-22 15:53:00,
2013-06-22 08:02:00,52.0,47.0,29.85,SSW,210,0.0,0.0,82,0.00,,,0.05,,2013-06-22 16:02:00,
2013-06-22 08:12:00,53.0,48.0,29.84,SSW,210,0.0,0.0,82,0.00,,,0.05,,2013-06-22 16:12:00,
2013-06-22 08:22:00,53.0,48.0,29.84,SSW,210,0.0,0.0,82,0.00,,,0.05,,2013-06-22 16:22:00,
2013-06-22 08:34:00,53.0,48.0,29.84,SSW,210,0.0,0.0,82,0.00,,,0.05,,2013-06-22 16:34:00,
2013-06-22 08:52:00,54.0,48.0,29.84,SSW,210,0.0,2.0,80,0.00,,,0.05,,2013-06-22 16:52:00,
2013-06-22 09:01:00,54.0,48.0,29.84,SSW,210,0.0,2.0,80,0.00,,,0.05,,2013-06-22 17:01:00,
2013-06-22 09:11:00,56.0,51.0,29.84,SSW,210,0.0,0.0,82,0.00,,,0.05,,2013-06-22 17:11:00,
2013-06-22 09:22:00,56.0,51.0,29.84,SSW,210,0.0,0.0,82,0.00,,,0.05,,2013-06-22 17:22:00,
2013-06-22 09:34:00,56.0,51.0,29.84,SSW,210,0.0,0.0,82,0.00,,,0.05,,2013-06-22 17:34:00,
2013-06-22 09:43:00,57.0,51.0,29.84,SSW,210,0.0,0.0,80,0.00,,,0.05,,2013-06-22 17:43:00,
2013-06-22 09:52:00,57.0,51.0,29.84,SSW,210,0.0,0.0,80,0.00,,,0.05,,2013-06-22 17:52:00,
2013-06-22 10:01:00,57.0,51.0,29.84,SSW,210,0.0,0.0,80,0.00,,,0.05,,2013-06-22 18:01:00,
2013-06-22 10:12:00,61.0,48.0,29.83,South,185,1.0,4.0,63,0.00,,,0.05,,2013-06-22 18:12:00,
2013-06-22 10:22:00,61.0,48.0,29.83,South,185,1.0,4.0,63,0.00,,,0.05,,2013-06-22 18:22:00,
2013-06-22 10:34:00,61.0,48.0,29.83,South,185,1.0,4.0,63,0.00,,,0.05,,2013-06-22 18:34:00,
2013-06-22 10:43:00,63.0,48.0,29.83,South,179,0.0,4.0,59,0.00,,,0.05,,2013-06-22 18:43:00,
2013-06-22 10:52:00,63.0,48.0,29.83,South,179,0.0,4.0,59,0.00,,,0.05,,2013-06-22 18:52:00,
2013-06-22 11:01:00,63.0,48.0,29.83,South,179,0.0,4.0,59,0.00,,,0.05,,2013-06-22 19:01:00,
2013-06-22 11:11:00,63.0,48.0,29.83,South,179,0.0,4.0,59,0.00,,,0.05,,2013-06-22 19:11:00,
2013-06-22 11:21:00,64.0,47.0,29.83,SSE,164,1.0,3.0,53,0.00,,,0.05,,2013-06-22 19:21:00,
2013-06-22 11:33:00,64.0,47.0,29.83,SSE,164,1.0,3.0,53,0.00,,,0.05,,2013-06-22 19:33:00,
2013-06-22 11:42:00,67.0,44.0,29.82,SSW,210,2.0,4.0,43,0.00,,,0.05,,2013-06-22 19:42:00,
2013-06-22 11:52:00,67.0,44.0,29.82,SSW,210,2.0,4.0,43,0.00,,,0.05,,2013-06-22 19:52:00,
2013-06-22 12:02:00,67.0,44.0,29.82,SSW,210,2.0,4.0,43,0.00,,,0.05,,2013-06-22 20:02:00,
2013-06-22 12:22:00,69.0,43.0,29.81,WSW,242,0.0,2.0,39,0.00,,,0.05,,2013-06-22 20:22:00,
2013-06-22 12:33:00,69.0,43.0,29.81,WSW,242,0.0,2.0,39,0.00,,,0.05,,2013-06-22 20:33:00,
2013-06-22 12:42:00,69.0,42.0,29.80,SSW,197,1.0,3.0,38,0.00,,,0.03,,2013-06-22 20:42:00,
2013-06-22 12:53:00,69.0,42.0,29.80,SSW,197,1.0,3.0,38,0.00,,,0.03,,2013-06-22 20:53:00,
2013-06-22 13:01:00,69.0,42.0,29.80,SSW,197,1.0,3.0,38,0.00,,,0.03,,2013-06-22 21:01:00,
2013-06-22 13:11:00,69.0,42.0,29.80,SSW,197,1.0,3.0,38,0.00,,,0.03,,2013-06-22 21:11:00,
2013-06-22 13:21:00,70.0,43.0,29.79,SSW,200,2.0,6.0,38,0.00,,,0.03,,2013-06-22 21:21:00,
2013-06-22 13:33:00,70.0,43.0,29.79,SSW,200,2.0,6.0,38,0.00,,,0.03,,2013-06-22 21:33:00,
2013-06-22 13:43:00,71.0,43.0,29.78,South,190,1.0,3.0,36,0.00,,,0.03,,2013-06-22 21:43:00,
2013-06-22 13:53:00,71.0,43.0,29.78,South,190,1.0,3.0,36,0.00,,,0.03,,2013-06-22 21:53:00,
2013-06-22 14:01:00,71.0,43.0,29.78,South,190,1.0,3.0,36,0.00,,,0.03,,2013-06-22 22:01:00,
2013-06-22 14:12:00,72.0,43.0,29.78,SW,221,1.0,3.0,35,0.00,,,0.03,,2013-06-22 22:12:00,
2013-06-22 14:23:00,72.0,43.0,29.78,SW,221,1.0,3.0,35,0.00,,,0.03,,2013-06-22 22:23:00,
2013-06-22 14:33:00,72.0,43.0,29.78,SW,221,1.0,3.0,35,0.00,,,0.03,,2013-06-22 22:33:00,
2013-06-22 14:52:00,73.0,44.0,29.77,SSE,162,1.0,3.0,35,0.00,,,0.03,,2013-06-22 22:52:00,
2013-06-22 15:01:00,73.0,44.0,29.77,SSE,162,1.0,3.0,35,0.00,,,0.03,,2013-06-22 23:01:00,
2013-06-22 15:11:00,73.0,44.0,29.77,SSE,162,1.0,3.0,35,0.00,,,0.03,,2013-06-22 23:11:00,
2013-06-22 15:22:00,75.0,45.0,29.76,West,269,0.0,3.0,34,0.00,,,0.03,,2013-06-22 23:22:00,
2013-06-22 15:34:00,75.0,45.0,29.76,West,269,0.0,3.0,34,0.00,,,0.03,,2013-06-22 23:34:00,
2013-06-22 15:52:00,75.0,45.0,29.75,WSW,243,1.0,2.0,35,0.00,,,0.02,,2013-06-22 23:52:00,
2013-06-22 16:01:00,75.0,45.0,29.75,WSW,243,1.0,2.0,35,0.00,,,0.02,,2013-06-23 00:01:00,
2013-06-22 16:11:00,75.0,45.0,29.75,WSW,243,1.0,2.0,35,0.00,,,0.02,,2013-06-23 00:11:00,
2013-06-22 16:21:00,74.0,45.0,29.74,SSE,155,0.0,2.0,36,0.00,,,0.02,,2013-06-23 00:21:00,
2013-06-22 16:33:00,74.0,45.0,29.74,SSE,155,0.0,2.0,36,0.00,,,0.02,,2013-06-23 00:33:00,
2013-06-22 16:42:00,74.0,45.0,29.74,SSE,155,0.0,2.0,36,0.00,,,0.02,,2013-06-23 00:42:00,
2013-06-22 16:52:00,73.0,44.0,29.73,South,182,2.0,4.0,35,0.00,,,0.00,,2013-06-23 00:52:00,
2013-06-22 17:01:00,73.0,44.0,29.73,South,182,2.0,4.0,35,0.00,,,0.00,,2013-06-23 01:01:00,
2013-06-22 17:11:00,73.0,44.0,29.73,South,182,2.0,4.0,35,0.00,,,0.00,,2013-06-23 01:11:00,
2013-06-22 17:21:00,73.0,44.0,29.73,South,182,2.0,4.0,35,0.00,,,0.00,,2013-06-23 01:21:00,
2013-06-22 17:32:00,74.0,44.0,29.72,SSW,196,3.0,7.0,34,0.00,,,0.00,,2013-06-23 01:32:00,
2013-06-22 17:42:00,74.0,44.0,29.72,SSW,196,3.0,7.0,34,0.00,,,0.00,,2013-06-23 01:42:00,
2013-06-22 17:52:00,74.0,45.0,29.72,SE,130,0.0,2.0,35,0.00,,,0.00,,2013-06-23 01:52:00,
2013-06-22 18:01:00,74.0,45.0,29.72,SE,130,0.0,2.0,35,0.00,,,0.00,,2013-06-23 02:01:00,
2013-06-22 18:11:00,74.0,45.0,29.72,SE,130,0.0,2.0,35,0.00,,,0.00,,2013-06-23 02:11:00,
2013-06-22 18:21:00,74.0,45.0,29.72,SE,130,0.0,2.0,35,0.00,,,0.00,,2013-06-23 02:21:00,
2013-06-22 18:31:00,74.0,45.0,29.72,SE,130,0.0,2.0,35,0.00,,,0.00,,2013-06-23 02:31:00,
2013-06-22 22:43:00,67.0,49.0,29.67,SSW,210,0.0,1.0,53,0.00,,,0.00,,2013-06-23 06:43:00,
2013-06-22 22:52:00,67.0,49.0,29.67,SSW,210,0.0,1.0,53,0.00,,,0.00,,2013-06-23 06:52:00,
2013-06-22 23:02:00,67.0,49.0,29.67,SSW,210,0.0,1.0,53,0.00,,,0.00,,2013-06-23 07:02:00,
2013-06-22 23:12:00,64.0,49.0,29.67,SSW,210,0.0,1.0,59,0.00,,,0.00,,2013-06-23 07:12:00,
2013-06-22 23:22:00,64.0,49.0,29.67,SSW,210,0.0,1.0,59,0.00,,,0.00,,2013-06-23 07:22:00,
2013-06-22 23:34:00,64.0,49.0,29.67,SSW,210,0.0,1.0,59,0.00,,,0.00,,2013-06-23 07:34:00,
2013-06-22 23:43:00,63.0,48.0,29.67,SSW,210,0.0,0.0,59,0.00,,,0.00,,2013-06-23 07:43:00,
2013-06-22 23:53:00,63.0,48.0,29.67,SSW,210,0.0,0.0,59,0.00,,,0.00,,2013-06-23 07:53:00,